[[{"header":{"parameterUnit":"m.s-1","parameterCategory":1,"la1":30.2992,"la2":30.254,"lo1":-89.0895,"lo2":-89.0443,"dy":0.0025,"dx":0.0025,"nx":19,"ny":19,"refTime":"2026-05-08T21:00:00:Z","depth":0,"parameterNumber":2,"parameterNumberName":"U-component_of_WINDS"},"data":[0,0,0,-0.1857,-0.1857,-0.1889,-0.1889,-0.1926,-0.1926,0,0,0,0,0,0,0,0,0,0,0,-0.1843,-0.1843,-0.1857,-0.1857,-0.1889,-0.1889,-0.1926,-0.1926,0,0,0,0,0,0,0,0,0,0,0,-0.1843,-0.1843,-0.1843,-0.1857,-0.1889,-0.1889,-0.1926,-0.1903,0,0,0,0,0,0,0,0,0,0,-0.1873,-0.1857,-0.1843,-0.1843,-0.1857,-0.1889,-0.1889,-0.1902,-0.1905,-0.1909,0,-0.1911,0,-0.1919,-0.1928,-0.1928,0,0,0,-0.186,-0.1855,-0.1867,-0.1843,-0.1858,-0.1889,-0.1876,-0.1904,-0.1906,-0.1912,-0.1911,-0.1913,-0.1919,-0.1928,-0.1928,-0.1941,-0.1941,0,0,-0.1859,-0.1847,-0.1865,-0.1868,-0.1862,-0.1875,-0.1877,-0.1905,-0.1904,-0.1911,-0.1914,-0.192,-0.1928,-0.1929,-0.1942,-0.1941,0,0,0,-0.1851,-0.1845,-0.1857,-0.1867,-0.1873,-0.1875,-0.1878,-0.1903,-0.1908,-0.1914,-0.192,-0.1929,-0.1929,-0.1942,-0.1942,-0.1926,0,0,0,-0.1851,-0.1841,-0.1856,-0.1849,-0.1872,-0.1888,-0.1874,-0.1906,-0.1909,-0.192,-0.1929,-0.1929,-0.1942,-0.1942,-0.1927,-0.1921,0,0,0,-0.1842,-0.184,-0.1844,-0.1849,-0.1862,-0.1888,-0.1894,-0.1907,-0.1913,-0.1928,-0.1929,-0.1942,-0.1942,-0.1927,-0.1922,-0.1921,0,0,0,-0.1831,-0.1829,-0.1843,-0.1844,-0.1862,-0.1878,-0.1894,-0.1907,-0.1918,-0.1929,-0.1942,-0.1942,-0.1927,-0.1922,-0.1922,-0.1919,-0.1917,0,0,-0.1822,-0.1827,-0.1829,-0.1843,-0.1853,-0.1874,-0.1883,-0.1904,-0.1916,-0.1933,-0.1933,-0.1927,-0.1922,-0.1921,-0.1907,-0.1905,0,0,0,-0.1822,-0.1823,-0.1829,-0.1839,-0.1855,-0.187,-0.1891,-0.19,-0.1914,-0.1922,-0.1927,-0.1924,-0.1925,-0.1924,-0.1922,-0.1924,-0.1941,-0.1941,-0.1941,-0.1793,-0.1809,-0.1814,-0.1834,-0.1844,-0.1867,-0.1877,-0.1893,-0.1906,-0.1907,-0.1912,-0.1901,-0.1899,-0.1898,-0.19,-0.1912,-0.1911,-0.1911,-0.1911,-0.1782,-0.1786,-0.1806,-0.1816,-0.1834,-0.1844,-0.1867,-0.1877,-0.1889,-0.1898,-0.1899,-0.1907,-0.1896,-0.1898,-0.191,-0.1911,-0.1911,-0.1911,-0.1911,-0.1765,-0.177,-0.178,-0.1798,-0.181,-0.1832,-0.1844,-0.186,-0.1875,-0.1876,-0.1884,-0.1884,-0.1887,-0.1879,-0.1879,-0.1879,-0.1879,-0.1879,-0.1879,-0.1742,-0.1755,-0.1762,-0.1781,-0.1791,-0.1806,-0.183,-0.1841,-0.1857,-0.1868,-0.1868,-0.1882,-0.1891,-0.1893,-0.1878,-0.1878,-0.1878,-0.1878,-0.1878,-0.1725,-0.1732,-0.1743,-0.1753,-0.1778,-0.179,-0.1811,-0.1831,-0.1842,-0.1848,-0.1862,-0.1867,-0.1873,-0.1875,-0.1877,-0.1858,-0.1858,-0.1858,-0.1858,-0.171,-0.1716,-0.1732,-0.1747,-0.1763,-0.1784,-0.1798,-0.1819,-0.1841,-0.185,-0.1855,-0.1859,-0.186,-0.1866,-0.1868,-0.187,-0.185,-0.185,-0.185,-0.1701,-0.1709,-0.1717,-0.1739,-0.176,-0.1778,-0.1793,-0.1811,-0.1837,-0.185,-0.1857,-0.1857,-0.1864,-0.1865,-0.1877,-0.1879,-0.1883,0,0]},{"header":{"parameterUnit":"m.s-1","parameterCategory":1,"la1":30.2992,"la2":30.254,"lo1":-89.0895,"lo2":-89.0443,"dy":0.0025,"dx":0.0025,"nx":19,"ny":19,"refTime":"2026-05-08T21:00:00:Z","depth":0,"parameterNumber":3,"parameterNumberName":"V-component_of_WINDS"},"data":[0,0,0,3.0228,3.0229,3.0266,3.0266,3.0315,3.0316,0,0,0,0,0,0,0,0,0,0,0,3.022,3.022,3.0228,3.0229,3.0266,3.0266,3.0315,3.0316,0,0,0,0,0,0,0,0,0,0,0,3.022,3.022,3.0221,3.0229,3.0266,3.0266,3.0315,3.0286,0,0,0,0,0,0,0,0,0,0,3.025,3.0245,3.022,3.0221,3.023,3.0266,3.0266,3.0285,3.0288,3.03,0,3.0313,0,3.0315,3.0319,3.032,0,0,0,3.0227,3.0243,3.025,3.0221,3.023,3.0266,3.0249,3.0287,3.029,3.0304,3.0313,3.0315,3.0316,3.032,3.032,3.04,3.04,0,0,3.0225,3.0228,3.0248,3.0253,3.0249,3.0248,3.025,3.0289,3.0298,3.0314,3.0316,3.0317,3.032,3.0321,3.0399,3.04,0,0,0,3.022,3.0226,3.0233,3.0251,3.0258,3.0249,3.0251,3.0297,3.0298,3.0317,3.0317,3.032,3.0321,3.0399,3.0399,3.0426,0,0,0,3.0219,3.0224,3.0232,3.0235,3.0257,3.0278,3.0258,3.0296,3.03,3.0317,3.032,3.0322,3.0398,3.0399,3.0424,3.0438,0,0,0,3.0217,3.0224,3.023,3.0235,3.0251,3.0277,3.0281,3.0297,3.0301,3.032,3.0322,3.0398,3.0399,3.0423,3.0435,3.0459,0,0,0,3.0214,3.0253,3.0231,3.0274,3.0251,3.0294,3.0281,3.0313,3.0333,3.0321,3.0398,3.0399,3.0422,3.0433,3.0457,3.0479,3.0488,0,0,3.0265,3.026,3.0285,3.0266,3.0314,3.0288,3.034,3.0355,3.0353,3.0384,3.0386,3.0425,3.0435,3.0458,3.0544,3.0551,0,0,0,3.0302,3.032,3.0332,3.0352,3.0365,3.0376,3.0382,3.0387,3.0413,3.037,3.044,3.0446,3.046,3.047,3.0477,3.0487,3.0405,3.0404,3.0404,3.0378,3.0374,3.0416,3.0416,3.0435,3.0441,3.0455,3.0463,3.0454,3.0471,3.0479,3.0532,3.0544,3.0549,3.056,3.0492,3.0492,3.0492,3.0492,3.0451,3.0475,3.0463,3.0498,3.0493,3.0522,3.0529,3.0522,3.0547,3.0525,3.0537,3.0512,3.0557,3.0567,3.0494,3.0493,3.0493,3.0493,3.0493,3.0499,3.051,3.0517,3.0543,3.0564,3.0563,3.0588,3.0583,3.0579,3.0591,3.0598,3.0598,3.0595,3.0595,3.0595,3.0595,3.0595,3.0595,3.0596,3.0546,3.0553,3.0575,3.0591,3.0602,3.0616,3.0622,3.0633,3.0643,3.0637,3.0637,3.0625,3.0563,3.0547,3.0598,3.0598,3.0598,3.0597,3.0597,3.0619,3.0602,3.0636,3.0648,3.0666,3.0686,3.068,3.0701,3.0709,3.0721,3.0707,3.0662,3.0656,3.065,3.0637,3.0708,3.0708,3.0708,3.0708,3.0659,3.0656,3.0689,3.0707,3.0724,3.0722,3.0759,3.0764,3.0765,3.077,3.0759,3.0741,3.0736,3.0732,3.0725,3.0712,3.0801,3.0802,3.0802,3.0703,3.0701,3.0734,3.0737,3.075,3.0762,3.0796,3.0816,3.0814,3.0805,3.0772,3.0769,3.0739,3.073,3.0719,3.0709,3.0685,0,0]}]]